SCP
0 -0 -0 -0 -0 -0 -0 -0 -0 -0 -0 -0 -0 -0 -0 -0 0 0 0 0 0 0 0 0 0 0 0 0 0 0 0 0 0 0 0 0 0 0 0 0 0 0 0 0 0 0 0 0 0 1 2 1 1 1
-0 -0 -0 -0 -0 -0 -0 -0 -0 -0 -0 -0 -0 -0 0 0 0 0 0 0 0 0 0 0 0 0 0 0 0 0 0 0 0 0 0 0 0 0 0 0 0 0 0 0 0 0 0 0 1 1 1 2 2 2
-0 -0 -0 -0 -0 -0 -0 -0 -0 -0 0 0 0 0 0 0 0 0 0 0 0 0 0 0 0 0 0 0 0 0 0 0 0 0 0 0 0 0 0 0 0 0 0 0 0 0 0 0 0 0 0 1 2 2
-0 -0 -0 -0 -0 -0 -0 -0 -0 -0 0 0 0 0 0 0 0 0 0 0 0 0 0 0 0 0 0 0 0 0 0 0 0 0 0 0 0 0 0 0 0 0 0 0 0 0 0 0 0 0 0 0 0 0
-0 -0 -0 -0 -0 -0 -0 -0 -0 -0 -0 -0 0 0 0 0 0 0 -0 0 0 0 0 0 0 0 0 0 0 0 0 0 0 0 0 0 0 0 0 0 0 0 0 0 0 0 0 0 0 0 0 0 0 0
0 0 0 0 0 0 0 0 0 0 0 0 0 0 0 0 0 -0 0 0 0 0 0 0 0 0 0 0 0 0 0 0 0 0 0 0 0 0 0 0 0 0 0 0 0 0 0 0 0 0 0 0 0 0
0 -0 0 0 0 0 0 0 0 0 0 0 0 0 0 0 0 0 0 0 0 0 0 0 0 0 0 0 0 0 0 0 0 0 0 0 0 0 0 0 0 0 0 0 0 0 0 0 0 0 0 0 0 0
-0 -0 -0 -0 0 0 0 -0 -0 -0 -0 -0 0 0 0 0 -0 0 0 0 0 0 0 0 0 0 0 0 0 0 0 0 0 0 0 0 0 0 0 0 0 0 0 0 0 0 0 0 0 0 0 0 0 0
-0 -0 -0 -0 0 0 -0 0 -0 -0 -0 -0 -0 0 0 0 0 0 0 0 0 0 0 0 0 0 0 0 0 0 0 0 0 0 0 0 0 0 0 0 0 0 0 0 0 0 0 0 0 0 0 0 0 0
-0 -0 -0 -0 -0 -0 0 -0 -0 -0 -0 0 0 0 0 0 0 -0 0 0 0 0 -0 0 0 0 0 0 0 0 0 0 0 0 0 0 0 0 0 0 0 0 0 0 0 0 0 0 0 0 0 0 0 0
-0 -0 -0 -0 -0 -0 0 0 0 -0 0 0 0 0 -0 -0 -0 0 0 0 0 0 0 0 0 0 0 0 0 0 0 0 0 0 0 0 0 0 0 0 0 0 -0 0 0 0 0 0 0 0 0 0 0 0
-0 -0 -0 -0 -0 -0 0 0 0 0 0 0 0 -0 -0 0 0 0 0 0 0 0 0 0 0 0 0 -0 0 0 0 0 0 0 0 0 0 0 0 0 0 0 0 0 0 0 0 0 0 0 0 0 0 0
-0 -0 0 0 -0 -0 -0 0 0 0 -0 0 0 0 0 -0 -0 0 -0 0 0 -0 0 0 0 0 -0 0 0 0 0 0 0 0 0 0 0 0 0 0 0 0 0 0 0 0 0 0 0 0 0 0 0 0
-0 0 0 0 -0 -0 0 0 0 0 0 0 0 0 0 0 -0 -0 -0 0 -0 -0 0 0 0 0 -0 -0 -0 -0 0 0 0 0 0 0 0 0 0 0 0 0 0 0 0 0 0 0 0 0 0 0 0 0
-0 -0 -0 -0 0 0 0 0 0 0 0 0 0 0 0 -0 -0 0 0 0 0 0 -0 0 -0 -0 -0 -0 -0 0 0 0 0 0 0 0 0 0 0 0 0 0 0 0 0 0 0 -0 0 0 0 0 0 0
0 -0 0 0 0 0 0 0 0 0 0 0 0 -0 -0 -0 -0 -0 0 -0 0 -0 -0 -0 0 0 0 0 0 0 0 0 0 0 0 0 0 0 0 0 0 0 0 0 0 0 0 0 0 0 0 0 0 0
0 0 0 0 0 0 0 0 0 0 0 0 0 0 0 0 0 0 -0 0 0 0 0 0 0 0 0 0 0 0 0 0 0 -0 0 0 0 0 0 0 0 0 0 0 0 0 0 0 0 0 0 0 0 0
0 0 0 0 0 0 0 0 0 0 0 0 0 -0 -0 0 0 0 -0 -0 0 0 0 0 0 0 0 0 0 0 0 0 0 0 0 0 0 0 0 0 0 0 0 0 0 0 0 0 0 0 0 0 0 -0
0 0 0 0 0 0 0 0 0 0 0 0 -0 -0 -0 0 -0 0 -0 0 0 0 0 0 0 0 0 0 0 0 0 0 0 0 0 0 0 0 0 0 0 0 0 0 0 0 0 0 0 0 0 0 0 0
0 -0 0 0 0 0 0 0 0 0 0 0 0 -0 -0 0 0 -0 -0 -0 -0 0 0 0 0 0 0 0 0 0 0 0 0 0 0 0 0 0 0 0 0 0 0 0 0 -0 0 0 0 -0 0 0 0 0
0 0 0 0 0 0 0 0 0 0 0 0 0 -0 0 -0 -0 -0 -0 -0 0 -0 -0 0 0 0 0 0 -0 0 0 0 0 0 0 0 0 -0 0 0 -0 0 -0 -0 -0 0 -0 0 0 -0 0 -0 0 0
0 0 0 0 0 0 0 0 0 0 0 0 0 -0 0 0 0 -0 0 -0 -0 0 0 -0 -0 -0 0 0 0 0 0 0 0 0 0 0 -0 0 0 0 0 -0 0 -0 0 -0 -0 0 0 0 0 0 0 -0
0 0 0 0 0 0 0 0 0 0 0 0 0 0 0 0 0 -0 -0 -0 0 0 -0 0 0 0 0 0 0 0 0 0 0 0 0 0 0 0 0 -0 -0 0 -0 -0 -0 -0 -0 -0 0 -0 -0 -0 -0 -0
0 0 0 0 0 0 0 0 0 0 0 0 0 0 0 0 0 0 0 -0 -0 -0 0 0 0 0 0 0 0 0 0 0 0 0 0 0 0 0 0 0 0 0 0 -0 -0 -0 0 -0 -0 -0 -0 -0 -0 0
0 0 0 0 0 0 0 0 0 0 0 -0 0 0 0 0 0 -0 -0 0 -0 -0 -0 0 0 0 0 0 0 0 0 0 0 0 0 0 0 0 0 0 -0 -0 -0 0 0 -0 -0 -0 -0 -0 -0 0 -0 0
0 0 0 0 0 0 0 0 0 0 0 0 0 0 0 0 0 0 -0 -0 0 -0 -0 0 0 0 0 -0 0 0 0 0 0 0 -0 0 0 0 0 0 -0 -0 -0 -0 -0 -0 -0 -0 -0 -0 0 -0 0 0
0 0 0 0 0 0 0 -0 0 0 0 0 0 0 0 0 0 0 0 0 0 0 -0 0 -0 0 0 0 0 0 0 0 0 0 -0 0 0 0 0 -0 0 0 0 -0 -0 0 -0 -0 -0 -0 0 0 -0 0
0 0 -0 0 0 -0 -0 0 0 0 0 0 0 0 0 0 0 0 0 0 0 0 0 0 0 0 0 0 0 0 0 0 -0 -0 -0 -0 -0 -0 0 0 -0 -0 -0 0 0 0 0 0 -0 -0 -0 -0 -0 -0
0 0 0 -0 0 0 0 0 0 0 0 0 0 0 0 0 0 0 0 0 0 -0 0 0 -0 -0 0 0 -0 -0 -0 0 0 -0 -0 -0 -0 -0 -0 -0 -0 -0 -0 -0 0 -0 -0 -0 -0 -0 -0 -0 -0 -0
-0 0 0 0 0 0 0 0 0 -0 0 0 0 -0 -0 -0 0 0 0 0 -0 0 0 0 0 0 -0 -0 -0 -0 -0 -0 0 -0 -0 -0 0 -0 -0 -0 -0 -0 -0 -0 -0 -0 -0 -0 -0 -0 -0 -0 0 0
0 0 0 0 0 0 0 0 0 0 0 -0 -0 -0 -0 -0 0 0 0 0 0 0 0 -0 -0 -0 -0 -0 -0 -0 -0 -0 -0 0 -0 0 -0 -0 0 0 0 0 -0 -0 -0 -0 -0 -0 -0 -0 -0 0 0 0
0 0 0 0 0 0 0 0 -0 -0 -0 -0 -0 -0 -0 -0 -0 -0 0 0 -0 -0 0 0 0 0 -0 -0 -0 0 -0 0 -0 -0 -0 -0 -0 -0 -0 -0 -0 0 0 -0 -0 -0 -0 -0 -0 -0 -0 0 -0 0
0 0 0 0 0 0 0 0 0 -0 -0 -0 -0 -0 0 0 0 0 0 0 0 0 0 0 0 -0 -0 0 -0 -0 0 0 0 -0 -0 0 -0 0 0 0 0 -0 -0 -0 0 0 -0 -0 -0 -0 -0 0 -0 0
Wind_Speed_500mb
24 24 25 27 29 31 30 29 30 33 34 37 38 38 36 32 28 21 9 20 14 16 31 20 15 16 15 17 18 17 12 22 16 18 20 21 24 19 14 28 16 18 19 20 22 32 40 17 2 14 13 4 10 21
21 22 23 25 27 30 31 29 29 30 32 35 39 39 36 32 27 24 7 20 20 14 22 25 24 24 20 14 19 13 17 10 18 9 10 12 18 10 19 19 17 19 24 21 16 12 12 12 10 6 5 8 16 27
21 22 23 24 27 29 29 28 28 28 28 33 38 41 38 33 28 22 15 18 22 22 36 22 14 9 16 22 18 22 10 8 7 9 19 13 13 17 20 19 27 18 12 14 19 2 9 6 3 6 8 17 19 23
21 21 23 26 28 28 29 28 28 29 31 33 37 39 40 33 28 21 7 15 17 18 13 7 5 7 11 19 21 22 22 14 16 17 24 15 20 21 18 25 22 8 9 9 23 7 8 6 10 17 23 27 29 27
20 21 23 26 27 29 30 30 31 32 34 37 39 39 36 33 25 19 7 7 9 10 15 27 29 25 13 16 19 19 21 21 24 23 16 18 30 26 16 23 22 27 21 19 20 16 25 25 20 24 28 29 28 28
21 22 24 26 28 30 32 32 33 35 37 40 40 37 33 28 20 9 9 2 6 13 13 9 4 11 12 15 21 21 20 20 22 25 19 29 21 7 13 22 37 29 40 20 18 8 19 29 30 28 28 26 24 22
23 25 27 27 27 31 34 35 35 38 41 42 39 33 28 20 11 11 9 5 15 10 10 12 9 13 9 14 23 25 22 22 22 26 26 30 24 17 18 27 35 24 19 15 14 15 25 38 36 30 28 23 21 17
25 25 26 27 28 31 36 39 39 42 44 45 34 24 20 7 2 4 7 8 11 8 10 8 9 9 4 16 24 25 28 26 22 25 28 17 23 19 15 29 32 35 15 8 23 28 34 35 32 29 26 22 17 12
25 24 26 27 30 33 35 38 39 40 38 30 22 11 5 3 4 5 16 24 14 11 16 7 13 4 8 21 9 3 21 18 22 13 23 22 18 18 16 24 27 19 15 23 25 31 37 36 32 28 23 16 11 10
26 23 23 23 26 30 33 37 38 38 30 22 16 6 4 3 10 18 6 5 6 10 13 19 19 14 14 6 6 15 12 14 9 12 24 9 18 34 35 29 3 14 21 27 37 34 34 36 30 23 14 10 8 6
26 25 24 25 26 27 30 34 36 37 27 17 10 7 12 17 5 8 6 10 13 8 11 10 14 17 4 11 7 5 7 7 7 6 8 9 7 12 15 8 8 16 25 27 32 34 36 30 24 19 12 9 5 2
26 25 25 25 24 25 27 31 34 30 23 25 14 17 9 6 10 9 8 6 6 2 3 7 9 16 6 5 6 4 6 7 5 11 7 9 7 6 2 8 17 23 27 29 28 30 26 25 18 14 11 7 5 5
28 27 26 24 22 24 25 25 28 31 26 14 9 6 5 6 5 7 6 4 6 9 7 15 14 5 6 9 7 7 5 4 5 8 8 5 14 6 6 8 18 19 25 25 27 26 21 18 15 11 8 7 6 7
23 25 23 22 21 22 23 23 29 24 7 7 6 6 8 9 6 9 4 5 14 15 20 20 15 5 12 8 7 7 6 5 5 5 6 3 13 17 15 14 20 25 30 31 30 19 9 2 5 9 8 6 7 7
21 20 20 21 19 19 22 25 24 12 7 8 7 7 12 8 7 3 6 11 13 16 16 11 11 11 6 8 6 4 5 7 6 3 3 12 17 17 21 24 22 18 14 7 13 10 7 26 11 9 7 7 5 5
16 16 11 9 13 19 24 22 11 6 7 7 10 14 17 13 12 6 3 13 12 12 15 10 5 5 6 3 6 7 6 8 4 3 6 14 16 18 20 23 27 31 18 15 13 11 18 16 13 9 9 8 8 9
14 6 16 15 17 20 21 1 7 6 9 8 14 22 22 20 18 11 5 10 11 13 7 7 6 4 8 5 4 4 5 1 7 14 8 6 18 22 20 18 17 19 26 26 18 23 20 14 14 13 14 11 12 14
7 19 24 15 17 14 10 4 6 8 12 18 19 11 12 15 17 17 12 11 13 13 13 8 12 9 8 10 6 8 22 10 10 19 24 18 18 11 13 17 16 16 15 15 18 18 16 14 14 15 14 15 14 18
19 25 18 12 12 10 5 6 9 10 14 15 15 18 18 19 19 21 22 19 17 17 14 11 8 5 6 17 10 16 17 16 10 17 16 16 16 13 11 8 5 8 6 10 14 16 14 15 11 11 16 11 13 13
16 15 13 9 9 3 6 7 8 11 12 7 13 18 18 19 19 18 20 20 19 13 7 6 11 19 20 24 23 19 11 13 13 15 8 9 4 8 8 3 11 9 11 11 13 15 19 15 17 12 6 8 16 14
6 10 8 6 7 8 8 7 10 13 16 12 12 14 17 17 20 20 18 13 15 21 26 23 11 16 13 17 9 4 3 8 14 9 7 8 5 8 7 7 3 3 10 11 15 13 11 9 8 14 12 11 10 11
8 8 2 9 6 7 10 13 12 13 11 16 20 17 15 14 16 16 5 11 13 14 13 10 12 12 3 5 6 5 7 7 4 6 6 4 2 5 8 7 10 5 16 11 5 10 9 5 11 9 8 9 12 12
8 5 5 8 7 7 11 8 9 9 8 8 8 7 9 9 6 10 9 12 10 1 7 4 3 6 8 9 7 6 5 2 8 12 5 4 8 6 9 7 7 9 6 11 12 13 5 5 8 12 14 12 12 21
12 5 6 7 14 9 7 7 10 10 9 15 9 7 6 9 10 7 7 11 17 8 5 8 10 13 12 6 10 9 6 5 7 9 6 3 2 8 4 9 10 11 10 11 11 15 8 13 12 17 14 13 13 13
7 7 8 9 10 8 7 8 14 12 9 15 10 7 7 8 5 9 9 5 6 10 9 9 15 16 16 11 13 12 5 6 3 8 3 2 2 3 1 8 5 9 12 9 10 13 13 10 10 9 9 8 7 15
9 12 13 9 9 12 10 7 9 11 13 7 9 10 4 6 6 5 7 14 3 6 7 11 18 19 15 9 10 9 9 2 2 4 5 3 2 5 6 5 7 7 5 14 15 14 15 11 5 3 8 11 14 11
7 10 17 15 9 7 12 22 22 10 13 8 8 5 6 7 4 4 7 4 7 3 3 9 20 20 17 16 11 9 7 4 5 7 6 4 3 3 7 8 10 6 2 11 11 11 10 10 11 10 8 9 8 11
13 10 15 19 21 21 15 10 6 10 10 8 6 7 4 1 4 8 7 3 3 2 2 8 16 19 20 19 17 16 11 10 10 8 13 11 14 9 5 5 3 1 4 8 9 9 11 12 12 8 7 12 15 19
14 13 16 20 14 12 18 18 20 9 6 9 8 6 4 6 12 7 4 4 5 7 10 13 13 18 21 20 18 16 14 14 12 17 20 16 16 16 14 5 13 4 7 8 13 13 12 9 6 8 13 16 18 21
19 21 15 11 21 16 30 25 25 30 23 20 18 20 23 20 19 19 19 18 18 18 16 17 21 24 26 27 29 29 27 21 18 20 20 14 7 12 13 4 9 13 9 14 15 17 15 11 13 14 19 22 18 16
8 19 20 31 32 34 36 30 29 31 34 36 35 37 38 35 33 31 31 32 32 31 30 27 24 21 31 41 31 27 32 31 27 17 13 13 7 2 4 6 8 9 12 12 14 19 25 21 20 21 22 15 20 16
19 22 16 14 25 24 24 30 30 33 36 39 42 41 41 40 43 39 35 36 38 40 38 39 36 30 28 24 25 24 25 25 14 19 15 16 15 11 11 13 12 11 11 14 16 19 21 22 23 23 23 21 21 21
31 32 30 29 32 18 23 27 24 28 33 35 36 36 34 34 33 28 23 23 24 23 27 32 36 34 29 21 19 19 24 26 29 24 16 15 16 16 18 18 16 14 12 19 22 23 23 24 24 23 24 24 23 23
Wind_Direction_500mb
334 341 344 348 354 357 354 353 354 356 359 3 5 5 6 4 1 12 311 345 2 297 291 299 292 302 302 259 275 37 260 224 255 246 262 260 265 265 262 269 292 295 256 245 251 262 254 36 198 283 24 35 151 157
325 331 336 342 346 349 349 349 351 354 359 4 3 1 358 2 360 357 357 328 320 271 275 295 273 257 254 273 311 297 321 307 357 288 244 292 273 285 290 277 270 248 278 302 325 2 12 345 341 1 316 155 147 153
319 328 331 336 342 344 343 343 346 348 350 355 358 0 355 353 354 350 340 336 334 283 293 245 239 230 243 243 246 277 251 330 271 310 306 303 303 305 273 251 247 239 212 254 292 246 357 315 238 159 174 143 138 142
314 320 326 332 337 339 339 337 336 337 337 340 344 347 351 346 346 344 347 318 339 302 279 152 284 256 260 230 237 242 270 277 272 277 272 264 262 244 266 281 292 24 103 243 259 252 278 243 152 136 132 134 133 135
313 316 319 325 331 334 335 336 332 327 326 327 328 331 335 338 336 333 323 301 348 346 321 308 291 273 254 226 234 236 247 258 264 253 241 252 266 275 258 271 269 266 243 250 263 321 207 153 157 150 145 142 139 135
311 315 316 320 327 331 332 332 332 330 326 323 321 321 323 328 328 340 219 251 334 346 298 285 342 270 242 238 226 229 239 245 254 263 261 260 259 284 266 253 251 249 263 238 294 177 206 159 163 160 153 148 146 141
299 309 315 317 319 323 328 329 326 326 324 323 318 315 316 315 311 267 327 247 320 330 267 283 270 155 250 241 227 229 224 243 251 264 247 255 263 194 251 259 274 275 266 203 254 224 157 166 163 158 153 143 137 131
292 301 308 309 313 321 326 328 328 328 327 323 316 311 313 291 257 235 289 288 324 282 257 272 276 252 181 244 228 218 237 232 227 248 261 251 258 213 259 267 263 262 232 221 237 197 174 166 156 154 153 149 142 137
287 295 301 305 314 316 321 326 331 334 333 336 336 344 65 136 256 248 282 297 276 249 304 256 292 356 332 254 268 201 244 253 245 224 244 249 241 238 231 244 263 249 225 230 192 193 162 157 165 162 155 153 159 147
284 283 301 308 313 321 324 331 338 343 345 2 21 288 195 305 269 294 305 187 202 214 232 269 281 277 303 292 292 341 350 245 226 287 243 247 251 260 253 230 303 242 218 204 192 161 157 167 166 162 158 133 130 139
283 278 285 300 312 320 324 333 341 350 4 3 336 313 298 297 306 236 246 215 210 207 231 262 334 316 248 289 299 235 258 322 279 18 275 243 226 320 223 140 211 214 212 195 188 176 173 171 168 157 144 139 140 174
279 280 282 286 303 315 321 331 338 350 342 323 297 298 316 262 239 244 220 191 246 220 330 306 291 277 299 236 250 300 292 302 273 322 322 257 87 22 331 237 207 201 198 173 174 175 169 163 163 152 146 167 201 218
277 280 278 280 295 307 318 327 335 334 341 330 357 280 252 255 327 207 322 334 356 339 323 316 307 257 240 232 239 205 203 283 289 223 232 99 162 65 68 176 185 191 180 170 159 151 159 160 143 141 152 167 201 233
279 280 276 274 287 299 310 322 327 330 339 264 269 281 244 199 273 37 15 332 350 335 320 314 297 273 236 200 225 250 204 241 229 227 268 30 83 87 97 121 139 123 118 122 115 111 124 239 157 154 168 194 212 232
288 294 290 274 283 293 306 318 320 320 290 261 222 247 227 267 252 342 317 300 343 357 332 313 272 244 239 259 260 283 226 231 227 89 93 93 97 109 125 131 133 134 126 160 263 266 226 234 205 199 202 194 206 250
300 318 317 290 286 300 310 319 303 229 247 251 245 257 245 261 247 215 255 319 340 346 333 289 288 251 256 263 234 233 306 12 24 1 131 131 144 147 144 148 153 155 153 164 158 199 216 212 212 213 211 214 245 255
292 271 290 295 301 309 312 349 244 244 248 230 239 236 271 302 307 299 279 284 338 340 331 294 289 260 294 251 248 22 25 82 187 229 144 173 189 184 186 188 188 188 195 200 208 224 238 228 218 222 224 245 263 267
257 279 287 295 315 346 289 238 243 243 249 241 249 253 231 259 287 287 267 298 299 330 335 350 303 303 309 334 12 343 345 347 344 6 8 343 302 260 225 226 224 226 216 208 201 214 229 223 213 220 225 248 248 264
225 242 281 294 322 334 262 239 226 267 254 271 264 268 264 267 268 268 268 263 269 284 315 294 261 289 334 303 337 320 318 299 264 259 259 265 265 273 256 227 176 155 171 170 186 201 199 202 219 211 237 250 276 296
249 258 261 274 306 338 257 229 230 260 271 330 277 264 262 264 267 267 265 260 256 252 237 233 257 289 347 343 335 342 331 289 284 214 122 104 129 141 125 119 139 159 171 166 179 190 185 209 208 230 249 274 290 293
236 254 238 284 303 232 254 259 242 263 294 275 282 275 270 257 236 244 248 237 228 246 258 269 310 325 360 326 321 355 324 332 326 24 177 137 166 211 159 168 216 119 188 188 195 175 210 218 242 221 219 270 246 298
231 229 214 294 244 242 262 238 260 299 275 271 284 248 268 244 239 242 224 222 250 248 239 317 354 330 76 65 63 19 45 73 89 93 115 90 43 182 127 240 173 252 208 201 198 243 274 240 261 230 237 264 273 285
189 189 223 228 245 240 264 237 250 245 246 274 240 252 240 256 227 176 251 212 227 121 310 256 166 152 98 111 105 87 94 130 90 75 93 116 152 170 175 188 153 194 247 243 224 223 249 229 247 247 251 259 271 283
183 220 228 231 210 261 241 224 232 252 254 234 238 249 231 204 192 220 242 247 118 84 168 172 168 155 153 190 215 122 126 90 120 100 71 82 183 110 196 214 220 229 232 237 212 239 226 246 251 243 261 252 256 288
218 224 203 250 231 230 230 242 230 195 241 228 244 255 227 208 240 211 208 95 232 153 144 191 196 185 189 180 148 149 173 260 198 229 200 51 262 193 136 251 224 239 226 222 217 212 223 242 242 247 247 258 296 299
221 206 197 223 205 209 212 241 220 220 233 242 229 254 219 242 233 206 50 105 301 111 174 195 195 188 212 203 185 169 178 188 300 20 247 236 286 279 230 268 269 228 228 219 208 214 221 222 223 260 231 238 251 303
241 231 214 224 248 253 254 245 256 269 252 221 259 192 226 227 179 59 74 83 58 55 158 198 193 196 199 185 194 199 184 209 284 332 9 342 306 352 353 12 21 0 218 199 209 225 224 222 235 240 269 294 319 318
235 251 238 225 232 239 233 273 273 244 229 243 234 217 252 341 144 147 146 189 273 246 236 198 203 208 219 202 205 205 211 232 234 266 269 270 273 258 244 245 141 33 172 194 206 223 221 213 216 244 282 304 311 316
225 222 247 240 223 250 248 218 242 227 275 259 288 314 283 134 167 176 207 253 259 246 239 220 200 216 223 227 234 244 247 260 252 249 273 251 218 226 216 209 160 136 176 132 158 150 160 169 209 271 302 300 309 315
235 213 218 242 230 227 234 223 238 250 262 264 264 274 270 258 254 250 255 266 266 258 248 229 226 241 231 224 233 235 240 236 242 248 225 254 286 162 212 190 211 209 194 211 213 204 204 240 264 280 285 296 300 329
217 209 233 248 256 245 248 256 254 254 258 261 262 264 264 269 268 262 260 260 262 262 260 255 236 226 244 247 242 237 237 235 227 233 259 285 315 235 200 207 215 206 214 228 242 243 230 227 248 259 279 297 307 318
214 216 227 250 250 244 238 243 252 254 255 253 254 255 258 257 259 266 264 256 254 252 248 249 257 251 251 251 245 244 241 248 207 224 220 235 258 246 226 227 227 232 255 254 249 252 246 247 259 267 283 303 309 315
213 231 229 243 261 258 239 235 251 257 248 246 244 246 248 250 258 262 249 251 261 258 249 244 243 244 246 249 266 249 227 226 221 217 222 240 248 243 255 255 263 229 270 277 281 273 257 250 257 267 276 288 301 307
Wind_Speed_850mb
24 24 25 27 29 31 30 29 30 33 34 37 38 38 36 32 28 21 9 20 14 16 31 20 15 16 15 17 18 17 12 22 16 18 20 21 24 19 14 28 16 18 19 20 22 32 40 17 2 14 13 4 10 21
21 22 23 25 27 30 31 29 29 30 32 35 39 39 36 32 27 24 7 20 20 14 22 25 24 24 20 14 19 13 17 10 18 9 10 12 18 10 19 19 17 19 24 21 16 12 12 12 10 6 5 8 16 27
21 22 23 24 27 29 29 28 28 28 28 33 38 41 38 33 28 22 15 18 22 22 36 22 14 9 16 22 18 22 10 8 7 9 19 13 13 17 20 19 27 18 12 14 19 2 9 6 3 6 8 17 19 23
21 21 23 26 28 28 29 28 28 29 31 33 37 39 40 33 28 21 7 15 17 18 13 7 5 7 11 19 21 22 22 14 16 17 24 15 20 21 18 25 22 8 9 9 23 7 8 6 10 17 23 27 29 27
20 21 23 26 27 29 30 30 31 32 34 37 39 39 36 33 25 19 7 7 9 10 15 27 29 25 13 16 19 19 21 21 24 23 16 18 30 26 16 23 22 27 21 19 20 16 25 25 20 24 28 29 28 28
21 22 24 26 28 30 32 32 33 35 37 40 40 37 33 28 20 9 9 2 6 13 13 9 4 11 12 15 21 21 20 20 22 25 19 29 21 7 13 22 37 29 40 20 18 8 19 29 30 28 28 26 24 22
23 25 27 27 27 31 34 35 35 38 41 42 39 33 28 20 11 11 9 5 15 10 10 12 9 13 9 14 23 25 22 22 22 26 26 30 24 17 18 27 35 24 19 15 14 15 25 38 36 30 28 23 21 17
25 25 26 27 28 31 36 39 39 42 44 45 34 24 20 7 2 4 7 8 11 8 10 8 9 9 4 16 24 25 28 26 22 25 28 17 23 19 15 29 32 35 15 8 23 28 34 35 32 29 26 22 17 12
25 24 26 27 30 33 35 38 39 40 38 30 22 11 5 3 4 5 16 24 14 11 16 7 13 4 8 21 9 3 21 18 22 13 23 22 18 18 16 24 27 19 15 23 25 31 37 36 32 28 23 16 11 10
26 23 23 23 26 30 33 37 38 38 30 22 16 6 4 3 10 18 6 5 6 10 13 19 19 14 14 6 6 15 12 14 9 12 24 9 18 34 35 29 3 14 21 27 37 34 34 36 30 23 14 10 8 6
26 25 24 25 26 27 30 34 36 37 27 17 10 7 12 17 5 8 6 10 13 8 11 10 14 17 4 11 7 5 7 7 7 6 8 9 7 12 15 8 8 16 25 27 32 34 36 30 24 19 12 9 5 2
26 25 25 25 24 25 27 31 34 30 23 25 14 17 9 6 10 9 8 6 6 2 3 7 9 16 6 5 6 4 6 7 5 11 7 9 7 6 2 8 17 23 27 29 28 30 26 25 18 14 11 7 5 5
28 27 26 24 22 24 25 25 28 31 26 14 9 6 5 6 5 7 6 4 6 9 7 15 14 5 6 9 7 7 5 4 5 8 8 5 14 6 6 8 18 19 25 25 27 26 21 18 15 11 8 7 6 7
23 25 23 22 21 22 23 23 29 24 7 7 6 6 8 9 6 9 4 5 14 15 20 20 15 5 12 8 7 7 6 5 5 5 6 3 13 17 15 14 20 25 30 31 30 19 9 2 5 9 8 6 7 7
21 20 20 21 19 19 22 25 24 12 7 8 7 7 12 8 7 3 6 11 13 16 16 11 11 11 6 8 6 4 5 7 6 3 3 12 17 17 21 24 22 18 14 7 13 10 7 26 11 9 7 7 5 5
16 16 11 9 13 19 24 22 11 6 7 7 10 14 17 13 12 6 3 13 12 12 15 10 5 5 6 3 6 7 6 8 4 3 6 14 16 18 20 23 27 31 18 15 13 11 18 16 13 9 9 8 8 9
14 6 16 15 17 20 21 1 7 6 9 8 14 22 22 20 18 11 5 10 11 13 7 7 6 4 8 5 4 4 5 1 7 14 8 6 18 22 20 18 17 19 26 26 18 23 20 14 14 13 14 11 12 14
7 19 24 15 17 14 10 4 6 8 12 18 19 11 12 15 17 17 12 11 13 13 13 8 12 9 8 10 6 8 22 10 10 19 24 18 18 11 13 17 16 16 15 15 18 18 16 14 14 15 14 15 14 18
19 25 18 12 12 10 5 6 9 10 14 15 15 18 18 19 19 21 22 19 17 17 14 11 8 5 6 17 10 16 17 16 10 17 16 16 16 13 11 8 5 8 6 10 14 16 14 15 11 11 16 11 13 13
16 15 13 9 9 3 6 7 8 11 12 7 13 18 18 19 19 18 20 20 19 13 7 6 11 19 20 24 23 19 11 13 13 15 8 9 4 8 8 3 11 9 11 11 13 15 19 15 17 12 6 8 16 14
6 10 8 6 7 8 8 7 10 13 16 12 12 14 17 17 20 20 18 13 15 21 26 23 11 16 13 17 9 4 3 8 14 9 7 8 5 8 7 7 3 3 10 11 15 13 11 9 8 14 12 11 10 11
8 8 2 9 6 7 10 13 12 13 11 16 20 17 15 14 16 16 5 11 13 14 13 10 12 12 3 5 6 5 7 7 4 6 6 4 2 5 8 7 10 5 16 11 5 10 9 5 11 9 8 9 12 12
8 5 5 8 7 7 11 8 9 9 8 8 8 7 9 9 6 10 9 12 10 1 7 4 3 6 8 9 7 6 5 2 8 12 5 4 8 6 9 7 7 9 6 11 12 13 5 5 8 12 14 12 12 21
12 5 6 7 14 9 7 7 10 10 9 15 9 7 6 9 10 7 7 11 17 8 5 8 10 13 12 6 10 9 6 5 7 9 6 3 2 8 4 9 10 11 10 11 11 15 8 13 12 17 14 13 13 13
7 7 8 9 10 8 7 8 14 12 9 15 10 7 7 8 5 9 9 5 6 10 9 9 15 16 16 11 13 12 5 6 3 8 3 2 2 3 1 8 5 9 12 9 10 13 13 10 10 9 9 8 7 15
9 12 13 9 9 12 10 7 9 11 13 7 9 10 4 6 6 5 7 14 3 6 7 11 18 19 15 9 10 9 9 2 2 4 5 3 2 5 6 5 7 7 5 14 15 14 15 11 5 3 8 11 14 11
7 10 17 15 9 7 12 22 22 10 13 8 8 5 6 7 4 4 7 4 7 3 3 9 20 20 17 16 11 9 7 4 5 7 6 4 3 3 7 8 10 6 2 11 11 11 10 10 11 10 8 9 8 11
13 10 15 19 21 21 15 10 6 10 10 8 6 7 4 1 4 8 7 3 3 2 2 8 16 19 20 19 17 16 11 10 10 8 13 11 14 9 5 5 3 1 4 8 9 9 11 12 12 8 7 12 15 19
14 13 16 20 14 12 18 18 20 9 6 9 8 6 4 6 12 7 4 4 5 7 10 13 13 18 21 20 18 16 14 14 12 17 20 16 16 16 14 5 13 4 7 8 13 13 12 9 6 8 13 16 18 21
19 21 15 11 21 16 30 25 25 30 23 20 18 20 23 20 19 19 19 18 18 18 16 17 21 24 26 27 29 29 27 21 18 20 20 14 7 12 13 4 9 13 9 14 15 17 15 11 13 14 19 22 18 16
8 19 20 31 32 34 36 30 29 31 34 36 35 37 38 35 33 31 31 32 32 31 30 27 24 21 31 41 31 27 32 31 27 17 13 13 7 2 4 6 8 9 12 12 14 19 25 21 20 21 22 15 20 16
19 22 16 14 25 24 24 30 30 33 36 39 42 41 41 40 43 39 35 36 38 40 38 39 36 30 28 24 25 24 25 25 14 19 15 16 15 11 11 13 12 11 11 14 16 19 21 22 23 23 23 21 21 21
31 32 30 29 32 18 23 27 24 28 33 35 36 36 34 34 33 28 23 23 24 23 27 32 36 34 29 21 19 19 24 26 29 24 16 15 16 16 18 18 16 14 12 19 22 23 23 24 24 23 24 24 23 23
Wind_Direction_850mb
334 341 344 348 354 357 354 353 354 356 359 3 5 5 6 4 1 12 311 345 2 297 291 299 292 302 302 259 275 37 260 224 255 246 262 260 265 265 262 269 292 295 256 245 251 262 254 36 198 283 24 35 151 157
325 331 336 342 346 349 349 349 351 354 359 4 3 1 358 2 360 357 357 328 320 271 275 295 273 257 254 273 311 297 321 307 357 288 244 292 273 285 290 277 270 248 278 302 325 2 12 345 341 1 316 155 147 153
319 328 331 336 342 344 343 343 346 348 350 355 358 0 355 353 354 350 340 336 334 283 293 245 239 230 243 243 246 277 251 330 271 310 306 303 303 305 273 251 247 239 212 254 292 246 357 315 238 159 174 143 138 142
314 320 326 332 337 339 339 337 336 337 337 340 344 347 351 346 346 344 347 318 339 302 279 152 284 256 260 230 237 242 270 277 272 277 272 264 262 244 266 281 292 24 103 243 259 252 278 243 152 136 132 134 133 135
313 316 319 325 331 334 335 336 332 327 326 327 328 331 335 338 336 333 323 301 348 346 321 308 291 273 254 226 234 236 247 258 264 253 241 252 266 275 258 271 269 266 243 250 263 321 207 153 157 150 145 142 139 135
311 315 316 320 327 331 332 332 332 330 326 323 321 321 323 328 328 340 219 251 334 346 298 285 342 270 242 238 226 229 239 245 254 263 261 260 259 284 266 253 251 249 263 238 294 177 206 159 163 160 153 148 146 141
299 309 315 317 319 323 328 329 326 326 324 323 318 315 316 315 311 267 327 247 320 330 267 283 270 155 250 241 227 229 224 243 251 264 247 255 263 194 251 259 274 275 266 203 254 224 157 166 163 158 153 143 137 131
292 301 308 309 313 321 326 328 328 328 327 323 316 311 313 291 257 235 289 288 324 282 257 272 276 252 181 244 228 218 237 232 227 248 261 251 258 213 259 267 263 262 232 221 237 197 174 166 156 154 153 149 142 137
287 295 301 305 314 316 321 326 331 334 333 336 336 344 65 136 256 248 282 297 276 249 304 256 292 356 332 254 268 201 244 253 245 224 244 249 241 238 231 244 263 249 225 230 192 193 162 157 165 162 155 153 159 147
284 283 301 308 313 321 324 331 338 343 345 2 21 288 195 305 269 294 305 187 202 214 232 269 281 277 303 292 292 341 350 245 226 287 243 247 251 260 253 230 303 242 218 204 192 161 157 167 166 162 158 133 130 139
283 278 285 300 312 320 324 333 341 350 4 3 336 313 298 297 306 236 246 215 210 207 231 262 334 316 248 289 299 235 258 322 279 18 275 243 226 320 223 140 211 214 212 195 188 176 173 171 168 157 144 139 140 174
279 280 282 286 303 315 321 331 338 350 342 323 297 298 316 262 239 244 220 191 246 220 330 306 291 277 299 236 250 300 292 302 273 322 322 257 87 22 331 237 207 201 198 173 174 175 169 163 163 152 146 167 201 218
277 280 278 280 295 307 318 327 335 334 341 330 357 280 252 255 327 207 322 334 356 339 323 316 307 257 240 232 239 205 203 283 289 223 232 99 162 65 68 176 185 191 180 170 159 151 159 160 143 141 152 167 201 233
279 280 276 274 287 299 310 322 327 330 339 264 269 281 244 199 273 37 15 332 350 335 320 314 297 273 236 200 225 250 204 241 229 227 268 30 83 87 97 121 139 123 118 122 115 111 124 239 157 154 168 194 212 232
288 294 290 274 283 293 306 318 320 320 290 261 222 247 227 267 252 342 317 300 343 357 332 313 272 244 239 259 260 283 226 231 227 89 93 93 97 109 125 131 133 134 126 160 263 266 226 234 205 199 202 194 206 250
300 318 317 290 286 300 310 319 303 229 247 251 245 257 245 261 247 215 255 319 340 346 333 289 288 251 256 263 234 233 306 12 24 1 131 131 144 147 144 148 153 155 153 164 158 199 216 212 212 213 211 214 245 255
292 271 290 295 301 309 312 349 244 244 248 230 239 236 271 302 307 299 279 284 338 340 331 294 289 260 294 251 248 22 25 82 187 229 144 173 189 184 186 188 188 188 195 200 208 224 238 228 218 222 224 245 263 267
257 279 287 295 315 346 289 238 243 243 249 241 249 253 231 259 287 287 267 298 299 330 335 350 303 303 309 334 12 343 345 347 344 6 8 343 302 260 225 226 224 226 216 208 201 214 229 223 213 220 225 248 248 264
225 242 281 294 322 334 262 239 226 267 254 271 264 268 264 267 268 268 268 263 269 284 315 294 261 289 334 303 337 320 318 299 264 259 259 265 265 273 256 227 176 155 171 170 186 201 199 202 219 211 237 250 276 296
249 258 261 274 306 338 257 229 230 260 271 330 277 264 262 264 267 267 265 260 256 252 237 233 257 289 347 343 335 342 331 289 284 214 122 104 129 141 125 119 139 159 171 166 179 190 185 209 208 230 249 274 290 293
236 254 238 284 303 232 254 259 242 263 294 275 282 275 270 257 236 244 248 237 228 246 258 269 310 325 360 326 321 355 324 332 326 24 177 137 166 211 159 168 216 119 188 188 195 175 210 218 242 221 219 270 246 298
231 229 214 294 244 242 262 238 260 299 275 271 284 248 268 244 239 242 224 222 250 248 239 317 354 330 76 65 63 19 45 73 89 93 115 90 43 182 127 240 173 252 208 201 198 243 274 240 261 230 237 264 273 285
189 189 223 228 245 240 264 237 250 245 246 274 240 252 240 256 227 176 251 212 227 121 310 256 166 152 98 111 105 87 94 130 90 75 93 116 152 170 175 188 153 194 247 243 224 223 249 229 247 247 251 259 271 283
183 220 228 231 210 261 241 224 232 252 254 234 238 249 231 204 192 220 242 247 118 84 168 172 168 155 153 190 215 122 126 90 120 100 71 82 183 110 196 214 220 229 232 237 212 239 226 246 251 243 261 252 256 288
218 224 203 250 231 230 230 242 230 195 241 228 244 255 227 208 240 211 208 95 232 153 144 191 196 185 189 180 148 149 173 260 198 229 200 51 262 193 136 251 224 239 226 222 217 212 223 242 242 247 247 258 296 299
221 206 197 223 205 209 212 241 220 220 233 242 229 254 219 242 233 206 50 105 301 111 174 195 195 188 212 203 185 169 178 188 300 20 247 236 286 279 230 268 269 228 228 219 208 214 221 222 223 260 231 238 251 303
241 231 214 224 248 253 254 245 256 269 252 221 259 192 226 227 179 59 74 83 58 55 158 198 193 196 199 185 194 199 184 209 284 332 9 342 306 352 353 12 21 0 218 199 209 225 224 222 235 240 269 294 319 318
235 251 238 225 232 239 233 273 273 244 229 243 234 217 252 341 144 147 146 189 273 246 236 198 203 208 219 202 205 205 211 232 234 266 269 270 273 258 244 245 141 33 172 194 206 223 221 213 216 244 282 304 311 316
225 222 247 240 223 250 248 218 242 227 275 259 288 314 283 134 167 176 207 253 259 246 239 220 200 216 223 227 234 244 247 260 252 249 273 251 218 226 216 209 160 136 176 132 158 150 160 169 209 271 302 300 309 315
235 213 218 242 230 227 234 223 238 250 262 264 264 274 270 258 254 250 255 266 266 258 248 229 226 241 231 224 233 235 240 236 242 248 225 254 286 162 212 190 211 209 194 211 213 204 204 240 264 280 285 296 300 329
217 209 233 248 256 245 248 256 254 254 258 261 262 264 264 269 268 262 260 260 262 262 260 255 236 226 244 247 242 237 237 235 227 233 259 285 315 235 200 207 215 206 214 228 242 243 230 227 248 259 279 297 307 318
214 216 227 250 250 244 238 243 252 254 255 253 254 255 258 257 259 266 264 256 254 252 248 249 257 251 251 251 245 244 241 248 207 224 220 235 258 246 226 227 227 232 255 254 249 252 246 247 259 267 283 303 309 315
213 231 229 243 261 258 239 235 251 257 248 246 244 246 248 250 258 262 249 251 261 258 249 244 243 244 246 249 266 249 227 226 221 217 222 240 248 243 255 255 263 229 270 277 281 273 257 250 257 267 276 288 301 307